GW1622 Weather Reports


Display with metric or nautical units.
time (UTC)temp
F
wind
direction
speed
MPH
gust
MPH
rain 1hr
in
rain 24hr
in
rain mn
in
humidity
%
barometer
mb
20260507024016 61 0 0.0 1.0 0.00 0.00 0.00 85 1017.4
20260507023516 61 0 0.0 2.0 0.00 0.00 0.00 85 1017.4
20260507023031 61 0 0.0 3.0 0.00 0.00 0.00 85 1017.3
20260507022513 61 5 0.0 3.0 0.00 0.00 0.00 85 1017.4
20260507022016 61 322 0.0 2.0 0.00 0.00 0.00 85 1017.4
20260507021531 61 0 0.0 2.0 0.00 0.00 0.00 85 1017.4
20260507021015 62 0 0.0 2.0 0.00 0.00 0.00 85 1017.3
20260507020516 62 5 0.0 2.0 0.00 0.00 0.00 85 1017.3
20260507020034 62 0 0.0 3.0 0.00 0.00 0.00 84 1017.2
20260507015518 62 0 0.0 3.0 0.00 0.00 0.00 84 1017.1
20260507015016 62 0 0.0 2.0 0.00 0.00 0.00 84 1017.2
20260507014532 62 0 0.0 2.0 0.00 0.00 0.00 83 1017.3
20260507014016 62 0 0.0 2.0 0.00 0.00 0.00 83 1017.2
20260507013516 63 52 0.0 2.0 0.00 0.00 0.00 83 1017.2
20260507013032 63 0 0.0 3.0 0.00 0.00 0.00 83 1017.2
20260507012515 63 0 1.0 7.0 0.00 0.00 0.00 82 1017.2
20260507012014 63 0 0.0 7.0 0.00 0.00 0.00 82 1017.2
20260507011538 63 292 0.0 4.0 0.00 0.00 0.00 82 1017.1
20260507011013 63 42 0.0 4.0 0.00 0.00 0.00 82 1017.1
20260507010515 64 45 1.0 3.0 0.00 0.00 0.00 82 1017.1
20260507010048 64 38 1.0 5.0 0.00 0.00 0.00 81 1017.0
20260507005516 64 0 0.0 5.0 0.00 0.00 0.00 81 1017.1
20260507005017 64 46 1.0 6.0 0.00 0.00 0.00 80 1017.1
20260507004534 64 56 2.0 6.0 0.00 0.00 0.00 80 1017.1
20260507004016 65 54 1.0 6.0 0.00 0.00 0.00 80 1017.1
20260507003517 65 63 1.0 6.0 0.00 0.00 0.00 80 1017.1
20260507003030 65 0 1.0 9.0 0.00 0.00 0.00 79 1017.0
20260507002517 66 132 1.0 9.0 0.00 0.00 0.00 78 1017.0
20260507002016 67 290 1.0 5.0 0.00 0.00 0.00 76 1017.0
20260507001533 66 0 1.0 7.0 0.00 0.00 0.00 77 1016.9
20260507001015 66 55 1.0 7.0 0.00 0.00 0.00 76 1016.8
20260507000518 67 79 1.0 4.0 0.00 0.00 0.00 76 1017.0
20260507000032 67 31 1.0 4.0 0.00 0.00 0.00 76 1016.9
20260506235516 66 0 1.0 4.0 0.00 0.00 0.00 76 1016.8
20260506235015 67 105 1.0 6.0 0.00 0.00 0.00 76 1016.8
20260506234533 67 24 1.0 8.0 0.00 0.00 0.00 76 1016.8
20260506234016 67 333 1.0 8.0 0.00 0.00 0.00 76 1016.8
20260506233517 67 5 1.0 4.0 0.00 0.00 0.00 75 1016.9
20260506233033 67 0 1.0 7.0 0.00 0.00 0.00 74 1016.8
20260506232515 67 52 2.0 7.0 0.00 0.00 0.00 73 1016.9
20260506232013 68 46 2.0 5.0 0.00 0.00 0.00 73 1016.9
20260506231531 69 0 1.0 7.0 0.00 0.00 0.00 73 1017.1
20260506231015 68 134 2.0 8.0 0.00 0.00 0.00 72 1016.9
20260506230513 69 5 1.0 8.0 0.00 0.00 0.00 71 1016.9
20260506230038 70 92 2.0 9.0 0.00 0.00 0.00 69 1017.0
20260506225516 69 250 1.0 9.0 0.00 0.00 0.00 73 1017.0
20260506225016 69 65 2.0 9.0 0.00 0.00 0.00 71 1017.1
20260506224537 69 67 1.0 8.0 0.00 0.00 0.00 71 1017.1
20260506224013 69 77 2.0 9.0 0.00 0.00 0.00 69 1017.2
20260506223515 70 306 2.0 9.0 0.00 0.00 0.00 70 1017.3
20260506223032 70 336 0.0 6.0 0.00 0.00 0.00 70 1017.4
20260506222517 69 66 2.0 6.0 0.00 0.00 0.00 71 1017.2
20260506222018 68 94 2.0 8.0 0.00 0.00 0.00 71 1017.2
20260506221529 70 52 2.0 8.0 0.00 0.00 0.00 70 1017.3
20260506221015 70 34 2.0 7.0 0.00 0.00 0.00 69 1017.5
20260506220515 69 74 1.0 6.0 0.00 0.00 0.00 70 1017.4
20260506220035 70 65 1.0 6.0 0.00 0.00 0.00 67 1017.4
20260506215519 70 0 2.0 9.0 0.00 0.00 0.00 68 1017.4
20260506215013 71 275 1.0 9.0 0.00 0.00 0.00 70 1017.5
20260506214536 71 74 1.0 10.0 0.00 0.00 0.00 67 1017.5
20260506214012 70 350 2.0 10.0 0.00 0.00 0.00 67 1017.6
20260506213515 71 290 2.0 9.0 0.00 0.00 0.00 67 1017.7
20260506213037 71 69 2.0 11.0 0.00 0.00 0.00 68 1017.6
20260506212515 71 340 1.0 11.0 0.00 0.00 0.00 67 1017.7
20260506212020 71 38 2.0 11.0 0.00 0.00 0.00 68 1017.6
20260506211534 71 92 1.0 6.0 0.00 0.00 0.00 66 1017.6
20260506211015 71 0 1.0 9.0 0.00 0.00 0.00 67 1017.7
20260506210516 70 0 1.0 9.0 0.00 0.00 0.00 67 1017.8
20260506210034 71 49 1.0 9.0 0.00 0.00 0.00 67 1017.9
20260506205515 71 85 1.0 9.0 0.00 0.00 0.00 67 1017.9
20260506205015 71 0 2.0 10.0 0.00 0.00 0.00 67 1018.0
20260506204536 71 323 2.0 10.0 0.00 0.00 0.00 68 1017.9
20260506204019 70 360 1.0 11.0 0.00 0.00 0.00 66 1017.9
20260506203515 70 0 2.0 11.0 0.00 0.00 0.00 67 1018.0
20260506203032 71 51 2.0 11.0 0.00 0.00 0.00 65 1018.0
20260506202515 72 81 1.0 9.0 0.00 0.00 0.00 67 1018.0
20260506202016 71 286 1.0 9.0 0.00 0.00 0.00 67 1018.1
20260506201538 70 71 2.0 10.0 0.00 0.00 0.00 66 1018.1
20260506201015 70 360 1.0 10.0 0.00 0.00 0.00 68 1018.2
20260506200516 70 244 2.0 6.0 0.00 0.00 0.00 68 1018.2
20260506200038 70 13 1.0 6.0 0.00 0.00 0.00 69 1018.2
20260506195516 70 30 2.0 7.0 0.00 0.00 0.00 67 1018.2
20260506195015 70 30 2.0 8.0 0.00 0.00 0.00 68 1018.3
20260506194536 69 138 2.0 8.0 0.00 0.00 0.00 68 1018.4
20260506194020 70 60 2.0 8.0 0.00 0.00 0.00 70 1018.5
20260506193515 69 85 2.0 9.0 0.00 0.00 0.00 67 1018.5
20260506193034 69 76 2.0 9.0 0.00 0.00 0.00 69 1018.4
20260506192515 69 82 2.0 8.0 0.00 0.00 0.00 69 1018.5
20260506192021 69 116 1.0 7.0 0.00 0.00 0.00 69 1018.6
20260506191534 68 63 2.0 7.0 0.00 0.00 0.00 71 1018.6
20260506191015 68 159 2.0 6.0 0.00 0.00 0.00 69 1018.6
20260506190515 68 73 2.0 8.0 0.00 0.00 0.00 70 1018.7
20260506190032 68 336 2.0 8.0 0.00 0.00 0.00 69 1018.6
20260506185516 68 31 2.0 8.0 0.00 0.00 0.00 71 1018.6
20260506185018 68 352 1.0 8.0 0.00 0.00 0.00 72 1018.6
20260506184533 67 24 2.0 7.0 0.00 0.00 0.00 70 1018.7
20260506184016 68 35 1.0 8.0 0.00 0.00 0.00 70 1018.9
20260506183518 67 317 1.0 8.0 0.00 0.00 0.00 71 1018.8
20260506183035 67 49 2.0 8.0 0.00 0.00 0.00 69 1018.8
20260506182514 67 334 1.0 8.0 0.00 0.00 0.00 72 1018.8
20260506182020 67 302 2.0 7.0 0.00 0.00 0.00 71 1018.9
20260506181532 67 351 2.0 7.0 0.00 0.00 0.00 72 1018.9
20260506181016 67 325 2.0 6.0 0.00 0.00 0.00 71 1018.9
20260506180518 67 86 2.0 5.0 0.00 0.00 0.00 71 1019.0
20260506180039 66 91 1.0 6.0 0.00 0.00 0.00 72 1019.0
20260506175517 67 171 1.0 6.0 0.00 0.00 0.00 68 1018.9
20260506175017 66 103 2.0 6.0 0.00 0.00 0.00 71 1018.9
20260506174535 66 0 2.0 6.0 0.00 0.00 0.00 71 1019.1
20260506174016 67 80 1.0 6.0 0.00 0.00 0.00 70 1019.1
20260506173515 66 26 1.0 8.0 0.00 0.00 0.00 72 1019.2
20260506173032 67 74 2.0 8.0 0.00 0.00 0.00 70 1019.2
20260506172517 67 325 2.0 6.0 0.00 0.00 0.00 71 1019.1
20260506172017 65 172 1.0 8.0 0.00 0.00 0.00 72 1019.3
20260506171545 66 0 2.0 8.0 0.00 0.00 0.00 71 1019.3
20260506171017 66 45 2.0 8.0 0.00 0.00 0.00 73 1019.3
20260506170514 66 23 3.0 8.0 0.00 0.00 0.00 72 1019.3
20260506170038 66 96 1.0 6.0 0.00 0.00 0.00 71 1019.3
20260506165516 65 86 1.0 8.0 0.00 0.00 0.00 74 1019.3
20260506165016 65 246 2.0 8.0 0.00 0.00 0.00 71 1019.3
20260506164535 66 0 1.0 6.0 0.00 0.00 0.00 71 1019.3
20260506164016 65 57 1.0 6.0 0.00 0.00 0.00 73 1019.3
20260506163517 65 13 2.0 6.0 0.00 0.00 0.00 71 1019.3
20260506163036 66 279 0.0 4.0 0.00 0.00 0.00 72 1019.2
20260506162515 65 335 1.0 4.0 0.00 0.00 0.00 73 1019.2
20260506162015 66 45 1.0 4.0 0.00 0.00 0.00 73 1019.2
20260506161536 66 0 1.0 6.0 0.00 0.00 0.00 73 1019.2
20260506161016 64 57 0.0 6.0 0.00 0.00 0.00 75 1019.2
20260506160517 64 55 1.0 3.0 0.00 0.00 0.00 73 1019.1
20260506160039 63 90 1.0 4.0 0.00 0.00 0.00 73 1019.2
20260506155515 64 0 1.0 4.0 0.00 0.00 0.00 74 1019.3
20260506155015 63 45 1.0 3.0 0.00 0.00 0.00 73 1019.3
20260506154538 63 9 0.0 3.0 0.00 0.00 0.00 76 1019.2
20260506154015 64 0 1.0 4.0 0.00 0.00 0.00 75 1019.3
20260506153516 62 332 1.0 4.0 0.00 0.00 0.00 77 1019.2
20260506153034 62 352 0.0 3.0 0.00 0.00 0.00 78 1019.1
20260506152520 61 0 1.0 3.0 0.00 0.00 0.00 79 1019.2
20260506152015 60 342 1.0 3.0 0.00 0.00 0.00 80 1019.1
20260506151540 60 9 0.0 3.0 0.00 0.00 0.00 81 1019.2
20260506151015 60 34 0.0 4.0 0.00 0.00 0.00 82 1019.1
20260506150517 59 5 0.0 4.0 0.00 0.00 0.00 84 1019.1
20260506150035 58 334 0.0 3.0 0.00 0.00 0.00 84 1019.0
20260506145517 58 0 0.0 3.0 0.00 0.01 0.00 86 1019.0
20260506145015 57 22 1.0 3.0 0.00 0.01 0.00 87 1019.0
20260506144536 56 30 0.0 2.0 0.00 0.01 0.00 88 1019.0
20260506144015 55 32 0.0 3.0 0.00 0.01 0.00 89 1019.0
20260506143515 55 37 0.0 3.0 0.00 0.01 0.00 90 1019.0
20260506143036 54 0 0.0 2.0 0.00 0.01 0.00 90 1018.9
20260506142515 54 0 0.0 2.0 0.00 0.01 0.00 91 1018.8
20260506142015 54 0 0.0 3.0 0.00 0.01 0.00 91 1018.9
20260506141529 53 0 0.0 3.0 0.00 0.01 0.00 91 1019.0
20260506141012 53 352 0.0 3.0 0.00 0.01 0.00 91 1018.9
20260506140515 53 0 0.0 3.0 0.00 0.01 0.00 92 1018.9
20260506140034 52 0 0.0 3.0 0.00 0.01 0.00 91 1018.8
20260506135514 52 0 0.0 3.0 0.00 0.24 0.00 92 1018.9
20260506135013 52 0 0.0 2.0 0.00 0.24 0.00 92 1018.9
20260506134530 52 0 0.0 1.0 0.00 0.24 0.00 92 1018.7
20260506134016 52 0 0.0 1.0 0.00 0.24 0.00 92 1018.7
20260506133513 52 345 0.0 1.0 0.00 0.24 0.00 92 1018.7
20260506133034 52 0 0.0 0.0 0.00 0.24 0.00 92 1018.6
20260506132515 52 0 0.0 0.0 0.00 0.24 0.00 92 1018.6
20260506132014 52 0 0.0 0.0 0.00 0.24 0.00 91 1018.6
20260506131532 52 0 0.0 0.0 0.00 0.24 0.00 91 1018.6
20260506131018 51 0 0.0 0.0 0.00 0.24 0.00 91 1018.5
20260506130515 51 0 0.0 0.0 0.00 0.24 0.00 91 1018.4
20260506130033 51 0 0.0 0.0 0.00 0.24 0.00 91 1018.5
20260506125515 52 0 0.0 1.0 0.00 0.26 0.00 91 1018.4
20260506125016 52 0 0.0 1.0 0.00 0.26 0.00 91 1018.3
20260506124534 52 0 0.0 2.0 0.00 0.26 0.00 91 1018.4
20260506124013 52 0 0.0 2.0 0.00 0.26 0.00 91 1018.3
20260506123515 52 0 0.0 1.0 0.00 0.26 0.00 91 1018.2
20260506123032 52 0 0.0 0.0 0.00 0.26 0.00 91 1018.2
20260506122515 52 0 0.0 0.0 0.00 0.26 0.00 91 1018.2
20260506122016 52 0 0.0 0.0 0.00 0.26 0.00 91 1018.2
20260506121530 52 0 0.0 0.0 0.00 0.26 0.00 90 1018.1
20260506121011 52 0 0.0 0.0 0.00 0.26 0.00 90 1018.1
20260506120513 53 0 0.0 0.0 0.00 0.26 0.00 90 1018.1
20260506120030 52 0 0.0 0.0 0.00 0.26 0.00 90 1018.1
20260506115511 52 0 0.0 0.0 0.00 0.34 0.00 90 1018.1
20260506115012 53 0 0.0 0.0 0.00 0.34 0.00 90 1018.1
20260506114538 53 0 0.0 0.0 0.00 0.34 0.00 90 1018.1
20260506114013 53 0 0.0 0.0 0.00 0.34 0.00 90 1018.0
20260506113519 53 0 0.0 0.0 0.00 0.34 0.00 90 1018.1
20260506113034 53 0 0.0 0.0 0.00 0.34 0.00 89 1018.0
20260506112519 53 0 0.0 0.0 0.00 0.34 0.00 89 1018.0
20260506112018 53 0 0.0 0.0 0.00 0.34 0.00 89 1018.0
20260506111532 53 0 0.0 0.0 0.00 0.34 0.00 88 1017.9
20260506111015 54 0 0.0 0.0 0.00 0.34 0.00 88 1018.0
20260506110519 54 0 0.0 0.0 0.00 0.34 0.00 89 1018.0
20260506110035 54 0 0.0 0.0 0.00 0.34 0.00 89 1018.0
20260506105519 54 0 0.0 0.0 0.00 0.34 0.00 89 1017.9
20260506105017 53 0 0.0 0.0 0.00 0.34 0.00 89 1017.9
20260506104537 54 0 0.0 0.0 0.00 0.34 0.00 89 1017.9
20260506104015 54 0 0.0 0.0 0.00 0.34 0.00 89 1018.0
20260506103519 54 0 0.0 0.0 0.00 0.34 0.00 89 1017.9
20260506103033 54 0 0.0 0.0 0.00 0.34 0.00 89 1017.9
20260506102515 54 0 0.0 0.0 0.00 0.34 0.00 89 1017.9
20260506102015 54 0 0.0 1.0 0.00 0.34 0.00 89 1017.9
20260506101531 54 0 0.0 1.0 0.00 0.34 0.00 89 1017.8
20260506101015 54 0 0.0 1.0 0.00 0.34 0.00 89 1017.8
20260506100515 54 0 0.0 1.0 0.00 0.34 0.00 89 1017.8
20260506100032 54 0 0.0 1.0 0.00 0.34 0.00 88 1017.7
20260506095515 54 0 0.0 0.0 0.00 0.34 0.00 88 1017.6
20260506095015 54 0 0.0 0.0 0.00 0.34 0.00 88 1017.6
20260506094535 54 0 0.0 0.0 0.00 0.34 0.00 88 1017.6
20260506094016 54 0 0.0 0.0 0.00 0.34 0.00 88 1017.6
20260506093518 55 0 0.0 0.0 0.00 0.34 0.00 88 1017.6
20260506093032 55 0 0.0 0.0 0.00 0.34 0.00 88 1017.6
20260506092520 55 0 0.0 0.0 0.00 0.34 0.00 87 1017.6
20260506092016 55 0 0.0 0.0 0.00 0.34 0.00 87 1017.7
20260506091532 55 0 0.0 0.0 0.00 0.34 0.00 87 1017.7
20260506091013 55 0 0.0 0.0 0.00 0.34 0.00 87 1017.8
20260506090515 55 0 0.0 0.0 0.00 0.34 0.00 87 1017.9
20260506090033 55 0 0.0 0.0 0.00 0.34 0.00 87 1017.9
20260506085515 55 0 0.0 0.0 0.00 0.42 0.00 86 1017.9
20260506085015 56 0 0.0 0.0 0.00 0.42 0.00 86 1018.0
20260506084534 56 0 0.0 0.0 0.00 0.42 0.00 86 1018.0
20260506084015 56 0 0.0 0.0 0.00 0.42 0.00 86 1018.0
20260506083515 56 0 0.0 1.0 0.00 0.42 0.00 86 1018.0
20260506083034 56 0 0.0 1.0 0.00 0.42 0.00 86 1018.2
20260506082515 56 0 0.0 1.0 0.00 0.42 0.00 86 1018.2
20260506082018 56 0 0.0 0.0 0.00 0.42 0.00 85 1018.3
20260506081535 56 0 0.0 0.0 0.00 0.42 0.00 85 1018.3
20260506081019 56 0 0.0 0.0 0.00 0.42 0.00 85 1018.3
20260506080515 56 0 0.0 0.0 0.00 0.42 0.00 85 1018.3
20260506073515 56 0 0.0 0.0 0.00 0.42 0.00 85 1018.6
20260506073035 56 0 0.0 0.0 0.00 0.42 0.00 85 1018.6
20260506072513 56 0 0.0 0.0 0.00 0.42 0.00 84 1018.6
20260506072016 56 0 0.0 1.0 0.00 0.42 0.00 84 1018.6
20260506071536 56 0 0.0 1.0 0.00 0.42 0.00 84 1018.6
20260506071015 56 0 0.0 1.0 0.00 0.42 0.00 84 1018.6
20260506070515 56 0 0.0 0.0 0.00 0.42 0.00 84 1018.6
20260506062515 57 0 0.0 2.0 0.00 0.42 0.42 82 1018.3
20260506062016 57 0 0.0 2.0 0.00 0.42 0.42 82 1018.3
20260506061532 57 0 0.0 0.0 0.00 0.42 0.42 82 1018.3
20260506061018 57 0 0.0 0.0 0.00 0.42 0.42 83 1018.3
20260506060517 57 0 0.0 0.0 0.00 0.42 0.42 83 1018.3
20260506051014 58 0 0.0 1.0 0.00 0.42 0.42 81 1018.2
20260506050516 58 231 0.0 1.0 0.00 0.42 0.42 81 1018.2
20260506045015 58 0 0.0 0.0 0.00 0.42 0.42 80 1017.9
20260506044541 58 0 0.0 1.0 0.00 0.42 0.42 80 1018.0
20260506044014 58 0 0.0 1.0 0.00 0.42 0.42 81 1017.8
20260506043516 58 0 0.0 1.0 0.00 0.42 0.42 80 1017.8
20260506043031 58 0 0.0 0.0 0.00 0.42 0.42 80 1017.7
20260506042517 58 0 0.0 2.0 0.00 0.42 0.42 80 1017.7
20260506042015 58 0 0.0 2.0 0.00 0.42 0.42 80 1017.6
20260506041530 58 0 0.0 1.0 0.00 0.42 0.42 81 1017.6
20260506041014 58 0 0.0 1.0 0.00 0.42 0.42 81 1017.6
20260506040518 58 0 0.0 1.0 0.00 0.42 0.42 80 1017.4
20260506040035 58 0 0.0 1.0 0.00 0.42 0.42 80 1017.5
20260506035519 58 0 0.0 1.0 0.00 0.42 0.42 79 1017.4
20260506035015 58 0 0.0 3.0 0.00 0.42 0.42 80 1017.4
20260506034533 58 0 0.0 3.0 0.00 0.42 0.42 79 1017.3
20260506034015 58 0 0.0 3.0 0.00 0.42 0.42 79 1017.2
20260506033514 58 0 0.0 0.0 0.00 0.42 0.42 79 1017.1
20260506033037 58 0 0.0 1.0 0.00 0.42 0.42 79 1017.0
20260506032515 58 0 0.0 1.0 0.00 0.42 0.42 79 1016.9
20260506032017 57 0 0.0 1.0 0.00 0.42 0.42 79 1016.7
20260506031536 58 0 0.0 2.0 0.00 0.42 0.42 79 1016.8
20260506031015 58 0 0.0 2.0 0.00 0.42 0.42 78 1016.7
20260506030519 58 0 0.0 1.0 0.00 0.42 0.42 78 1016.8
20260506030054 58 0 0.0 1.0 0.00 0.42 0.42 77 1016.7
20260506025514 58 0 0.0 2.0 0.00 0.42 0.42 77 1016.7
20260506025017 59 0 0.0 2.0 0.00 0.42 0.42 76 1016.6
20260506024547 59 0 0.0 1.0 0.00 0.42 0.42 76 1016.5